Стендаль

Germany     52˚40′01″N   11˚49′58″E
temp.,
°C
wind,
m/s
gust,
m/s
humid.,
%
clouds,
%
prec.,
mm/h
press.,
hPa
HPBL,
m
3 december, thu
thu301:00−3˚se48830 0.0 1011247
04:00−3˚sse37870 0.0 1009249
07:00−3˚sse36860 0.0 1007195
10:00−1˚sse587979 0.0 1005249
13:00+1˚sse586985 0.0 1003403
16:00+1˚s5107499 0.0 1001417
19:00−1˚sse5118179 0.0 1000285
22:00−1˚sse612830 0.0 998327
4 december, fri
fri401:00−1˚sse6127915 0.0 997363
04:00−1˚se6117499 0.0 994353
07:00−1˚se61170100 0.0 994320
10:00+1˚se51068100 0.0 993305
13:00+3˚ese5876100 0.0 992273
16:00+2˚e499299 0.0 992216
19:00ese339587 0.0 99356
22:00+1˚e3796100 0.0 993198
5 december, sat
sat501:00−1˚ese339688 0.0 99459
04:00−1˚sse239376 0.0 99446
07:00−1˚ese339280 0.0 99456
10:00+1˚e2284100 0.0 99682
13:00+3˚sw2377100 0.0 997223
16:00+1˚se1188100 0.0 99822
19:00nne118890 0.0 99821
22:00nne338937 0.0 99883
6 december, sun
sun601:00+1˚ese119568 0.0 99722
04:00+1˚ssw2295100 0.0 99732
07:00+1˚s2289100 0.0 99965
10:00+1˚nw1186100 0.1 100057
13:00+2˚n2386100 0.1 999103
16:00+5˚ene2495100 0.6 998111
19:00+8˚ese71593100 3.6 998737
22:00+8˚ese71590100 2.6 997793
7 december, mon
mon701:00+8˚ese71587100 4.1 997723
04:00+7˚ese51287100 0.4 996654
07:00+7˚se41193100 3.1 997644
10:00+5˚wsw5896100 3.8 998355
13:00+5˚sw71293100 5.8 1000700
16:00+5˚sw51182100 0.3 1003687
19:00+2˚ssw498982 0.3 1007230
22:00+1˚s48890 0.0 1009207